Regional Weather Roundup
Issued by NWS

Home | Current Version | Previous Version | Graphics & Text | Print | Product List | Glossary On
Versions: 1 2 3 4 5 6 7 8 9 10 11 12 13 14 15 16 17 18 19 20 21 22 23 24 25 26 27 28 29 30 31 32 33 34 35 36 37 38 39 40 41 42 43 44 45 46 47 48 49 50
000
ASUS45 KBOU 270407
RWRCO

WEATHER ROUNDUP FOR COLORADO
NATIONAL WEATHER SERVICE DENVER/BOULDER CO
900 PM MST WED NOV 26 2014

NOTE: "FAIR" INDICATES FEW OR NO CLOUDS BELOW 12000 FEET WITH NO
SIGNIFICANT WEATHER AND/OR OBSTRUCTIONS TO VISIBILITY.

COZ001>005-013-030-031-270500-
...NORTHWEST COLORADO...

CITY           SKY/WX    TMP DP  RH WIND       PRES   REMARKS
CRAIG          MOCLDY    33  26  75 W6        30.40R WCI  28
HAYDEN         CLOUDY    37  27  65 S3        30.40R
MEEKER         PTCLDY    29  23  78 NE5       30.43R WCI  24
MOUNT WERNER   NOT AVBL
STEAMBOAT SPGS CLOUDY    35  31  87 NE3       30.40R
WALDEN         PTCLDY    34  23  64 W15       30.35R WCI  24
$$

COZ006>008-011-270500-
...WEST CENTRAL VALLEYS...

CITY           SKY/WX    TMP DP  RH WIND       PRES   REMARKS
GRAND JUNCTION CLEAR     33  22  63 E7        30.42R WCI  27
MONTROSE       CLEAR     31  24  75 SE9       30.45S WCI  23
EAGLE          PTCLDY    30  27  86 E7        30.46R WCI  23
RIFLE          CLEAR     27  22  81 CALM      30.46R
DELTA          CLEAR     35  25  66 NE5       30.45R WCI  31
NUCLA          CLEAR     36  27  69 E13       30.48R
$$

COZ017>023-064>068-270500-
...SOUTHWEST COLORADO...

CITY           SKY/WX    TMP DP  RH WIND       PRES   REMARKS
DURANGO        CLEAR     34  22  61 N10       30.42R WCI  26
CORTEZ         CLEAR     27  19  72 NE7       30.44R WCI  19
PAGOSA SPRINGS CLEAR     29  20  69 CALM      30.46R
TELLURIDE      CLEAR     28  24  83 SE6       30.52S WCI  22
WOLF CREEK PAS CLEAR     27  14  59 MISG      30.54S
$$

COZ009-010-012-014-032>034-037-058>063-270500-
...CENTRAL COLORADO...

CITY           SKY/WX    TMP DP  RH WIND       PRES   REMARKS
ASPEN          PTCLDY    23  18  81 S8        30.45F WCI  14
BUENA VISTA    PTCLDY    39  20  46 NW14      30.36S
COPPER MTN     PTCLDY    27  21  80 W33G47    30.46R WCI   9
BERTHOUD PASS  NOT AVBL
COTTONWOOD PAS PTCLDY    39  10  30 W8G28     30.39R
GUNNISON       CLEAR     27  18  69 CALM      30.47S
KREMMLING      PTCLDY    34  23  64 W3        30.41S
LEADVILLE      PTCLDY    29  18  63 W14G20    30.45R WCI  18
MONARCH PASS     N/A     21  19  93 MISG      30.55R
SALIDA         PTCLDY    40  20  44 NW3       30.43R
SUNLIGHT       PTCLDY   N/A N/A N/A CALM      30.52R
WILKERSON PASS PTCLDY    28  16  59 W10G16    30.43F WCI  19
$$

COZ069>075-270500-
...SAN LUIS VALLEY/SANGRE DE CRISTO MOUNTAINS...

CITY           SKY/WX    TMP DP  RH WIND       PRES   REMARKS
ALAMOSA        PTCLDY    25  17  72 W7        30.42R WCI  17
LA VETA PASS   PTCLDY    32  19  59 S14G22    30.42R WCI  22
SAGUACHE       CLEAR     32  25  74 NW7       30.43R WCI  26
$$

COZ035-036-038>040-270500-
...NORTHERN COLORADO FRONT RANGE...

CITY           SKY/WX    TMP DP  RH WIND       PRES   REMARKS
DENVER INTL AP PTCLDY    24  21  88 N5        30.24R WCI  18
DMNS CITY PARK   N/A     28  23  83 NW2       30.25R
AURORA         PTCLDY    31  25  77 NE5       30.24R WCI  26
FRONT RANGE AP NOT AVBL
ERIE MUNI ARPT PTCLDY    23  21  93 CALM      30.26R
BOULDER MUN AP PTCLDY    28  25  86 NW3       30.25R
CENTENNIAL     PTCLDY    30  25  81 SE3       30.23R
BROOMFIELD     PTCLDY    28  25  86 NW5       30.24R WCI  23
FORT COLLINS   CLEAR     23  18  80 NW3       30.27F
LONGMONT       CLEAR     28  24  86 CALM      30.28R
$$

COZ041-046-047-076>085-087-088-270500-
...PIKES PEAK/PALMER DIVIDE AND SOUTHERN FOOTHILLS...

CITY           SKY/WX    TMP DP  RH WIND       PRES   REMARKS
COLO. SPRINGS  PTCLDY    30  23  75 SE6       30.31S WCI  24
A. F. ACADEMY  PTCLDY    25  21  85 VRB1      30.29S
ELLICOTT       NOT AVBL
FALCON         NOT AVBL
FORT CARSON    CLEAR     28  23  81 S9        30.30R WCI  19
LIMON          CLEAR     28  20  71 S12       30.29R WCI  18
MONUMENT HILL  CLEAR     32  23  69 SW9       30.25S WCI  24
TRINIDAD       CLEAR     31  26  82 W5        30.30R WCI  26
$$

COZ042>045-048>051-090-091-270500-
...NORTHEAST COLORADO...

CITY           SKY/WX    TMP DP  RH WIND       PRES   REMARKS
GREELEY ARPT   CLEAR     19  12  73 NE5       30.28S WCI  13
AKRON          PTCLDY    22  21  96 SE10      30.27R WCI  11
BURLINGTON     PTCLDY    21  17  84 S8        30.32R WCI  11
WRAY           CLOUDY    29  26  90 CALM      30.33R
STERLING       PTCLDY    23  21  93 W3        30.30S
HOLYOKE        MOCLDY    32  28  86 S3        30.32S
FORT MORGAN    PTCLDY    23  21  91 NE9       30.28R WCI  13
$$

COZ086-089-092>099-270500-
...SOUTHEAST COLORADO...

CITY           SKY/WX    TMP DP  RH WIND       PRES   REMARKS
PUEBLO         PTCLDY    25  20  81 CALM      30.33R
LA JUNTA       PTCLDY    29  21  72 E8        30.31S WCI  21
LAMAR          CLEAR     26  19  74 S6        30.33R WCI  19
SPRINGFIELD      N/A     24  18  77 S7        30.34R WCI  16
$$



USA.gov is the U.S. government's official web portal to all federal, state and local government web resources and services.